Home   Weather   Gibraltar   Past weeks
Flag for Gibraltar

Past Weather in Gibraltar, Gibraltar — Yesterday and Last 2 Weeks

Now
73 °F

Sunny.


Feels Like: 74 °F
Forecast: 77 / 69 °F
Wind: 8 mph from East

Location: Gibraltar Airport

Current Time: Jul 16, 2019 at 8:51:42 pm

Latest Report: Jul 16, 2019 at 7:50 pm


Visibility: N/A

Pressure: 29.92 "Hg

Humidity: 78%

Dew Point: 66 °F

Location of GibraltarLocation

Past Weather in Gibraltar — Graph

°F

Gibraltar Temperature Yesterday

Maximum temperature yesterday: 82 °F (at 2:20 pm)
Minimum temperature yesterday: 70 °F (at 3:50 am)
Average temperature yesterday: 77 °F

High & Low Weather Summary for the Past Weeks

 TemperatureHumidityPressure
High84 °F (Jul 12, 3:50 pm)94% (Jul 12, 8:50 am)30.07 "Hg (Jul 12, 8:50 am)
Low66 °F (Jul 4, 6:50 am)42% (Jul 7, 3:50 pm)29.86 "Hg (Jul 15, 6:50 pm)
Average74 °F66%29.95 "Hg
* Reported Jul 1 6:21 pm — Jul 16 6:50 pm, Gibraltar. Weather by CustomWeather, © 2019

Note: Actual official high and low records may vary slightly from our data, if they occured in-between our weather recording intervals... More about our weather records

Advertising

Gibraltar Weather History for the Previous 24 Hours

Scroll right to see more
 ConditionsComfort  
Time TempWeatherWind HumidityBarometerVisibility
6:50 pm
Tue, Jul 16
75 °FSunny.10 mph74%29.92 "HgN/A
5:50 pm75 °FSunny.7 mph74%29.92 "Hg10 mi
4:50 pm75 °FSunny.7 mph74%29.95 "Hg10 mi
4:20 pm75 °FSunny.7 mph69%29.95 "Hg10 mi
3:50 pm75 °FSunny.8 mph69%29.95 "Hg10 mi
3:20 pm73 °FSunny.9 mph74%29.95 "Hg10 mi
2:50 pm75 °FSunny.8 mph69%29.95 "Hg10 mi
2:20 pm75 °FSunny.9 mph69%29.95 "Hg10 mi
1:50 pm75 °FSunny.7 mph69%29.95 "Hg10 mi
1:21 pm75 °FSunny.5 mph61%29.98 "Hg10 mi
12:50 pm75 °FSunny.3 mph61%29.95 "Hg10 mi
12:19 pm73 °FSunny.7 mph61%29.95 "Hg10 mi
11:50 am77 °FPassing clouds.7 mph57%29.95 "HgN/A
11:20 am75 °FPassing clouds.9 mph61%29.95 "HgN/A
10:50 am73 °FPassing clouds.10 mph65%29.92 "HgN/A
10:31 am73 °FPassing clouds.12 mph69%29.92 "HgN/A
9:50 am72 °FPassing clouds.14 mph69%29.92 "HgN/A
9:20 am72 °FPassing clouds.13 mph69%29.92 "HgN/A
8:50 am68 °FPassing clouds.12 mph78%29.92 "HgN/A
7:50 am68 °FPassing clouds.12 mph78%29.89 "HgN/A
6:50 am68 °FPassing clouds.12 mph83%29.89 "HgN/A
5:50 am68 °FClear.16 mph83%29.89 "HgN/A
4:50 am68 °FClear.18 mph83%29.89 "HgN/A
3:50 am68 °FClear.18 mph83%29.89 "Hg6 mi
2:50 am70 °FClear.18 mph73%29.89 "HgN/A
1:50 am73 °FClear.15 mph65%29.89 "HgN/A
12:50 am73 °FClear.16 mph65%29.92 "HgN/A
11:50 pm
Mon, Jul 15
75 °FClear.15 mph57%29.89 "HgN/A
10:50 pm77 °FClear.15 mph54%29.89 "HgN/A
9:50 pm79 °FClear.12 mph54%29.89 "Hg10 mi
9:20 pm79 °FSunny.13 mph54%29.86 "Hg10 mi
8:50 pm81 °FSunny.14 mph51%29.86 "Hg10 mi
8:20 pm81 °FSunny.12 mph54%29.86 "Hg10 mi
Weather by CustomWeather, © 2019

See weather overview

LIVE PARTIAL LUNAR ECLIPSE – Watch the eclipse as it happens